Location: Les Martinières
(47.2667°N, 1.4410°E)
Time: 23:22:37
(UTC+00:00)

COSMOS 2428 - Pass Details

Date: 15 May 2026
Orbit: 844 x 855 km, 70.9° (Epoch: 6 June)

Event Time Altitude Azimuth Distance (km) Brightness Sun altitude
Rises 22:49:49 0° 332° (NNW) 3,424 7.3 -22.3°
Reaches altitude 10° 22:52:17 10° 333° (NNW) 2,483 6.2 -22.4°
Maximum altitude 22:58:00 87° 62° (ENE) 855 2.6 -22.6°
Enters shadow 22:59:33 51° 149° (SSE) 1,061 2.8 -22.7°
